| time (UTC) | temp F | wind direction | speed MPH | gust MPH | rain 1hr in | rain 24hr in | rain mn in | humidity % | barometer mb |
| 20260905054532 | 54 | 155 | 0.0 | 0.0 | 0.00 | 0.02 | 0.02 | 69 | 1012.7 |
| 20260905053025 | 55 | 155 | 0.0 | 0.0 | 0.00 | 0.02 | 0.02 | 67 | 1012.8 |
| 20260905051526 | 56 | 155 | 0.0 | 0.0 | 0.00 | 0.02 | 0.02 | 66 | 1012.8 |
| 20260905044523 | 56 | 155 | 0.0 | 0.0 | 0.00 | 0.02 | 0.02 | 65 | 1012.8 |
| 20260905043023 | 57 | 155 | 0.0 | 0.0 | 0.00 | 0.02 | 0.02 | 64 | 1012.7 |
| 20260905041520 | 57 | 155 | 0.0 | 1.0 | 0.00 | 0.02 | 0.02 | 63 | 1012.5 |
| 20260905034527 | 58 | 128 | 0.0 | 0.0 | 0.00 | 0.02 | 0.02 | 61 | 1012.3 |
| 20260905033017 | 59 | 128 | 0.0 | 0.0 | 0.00 | 0.02 | 0.02 | 60 | 1012.1 |
| 20260905031516 | 59 | 129 | 0.0 | 0.0 | 0.00 | 0.02 | 0.02 | 60 | 1012.0 |
| 20260905024519 | 60 | 23 | 0.0 | 0.0 | 0.00 | 0.02 | 0.02 | 57 | 1011.8 |
| 20260905023020 | 60 | 23 | 0.0 | 0.0 | 0.00 | 0.02 | 0.02 | 55 | 1011.7 |
| 20260905021516 | 60 | 23 | 0.0 | 0.0 | 0.00 | 0.02 | 0.02 | 55 | 1011.6 |
| 20260905014511 | 63 | 23 | 0.0 | 1.0 | 0.00 | 0.02 | 0.02 | 52 | 1011.7 |
| 20260905013012 | 64 | 22 | 0.0 | 1.0 | 0.00 | 0.02 | 0.02 | 48 | 1011.5 |
| 20260905011513 | 65 | 358 | 0.0 | 2.0 | 0.00 | 0.02 | 0.02 | 48 | 1011.4 |
| 20260905004512 | 66 | 111 | 0.0 | 2.0 | 0.00 | 0.02 | 0.02 | 44 | 1011.3 |
| 20260905003011 | 67 | 300 | 0.0 | 3.0 | 0.00 | 0.02 | 0.02 | 42 | 1011.4 |
| 20260905001511 | 68 | 184 | 0.0 | 2.0 | 0.00 | 0.02 | 0.02 | 42 | 1011.2 |
| 20260904234507 | 70 | 332 | 1.0 | 3.0 | 0.00 | 0.02 | 0.02 | 42 | 1011.1 |
| 20260904233009 | 71 | 10 | 1.0 | 4.0 | 0.00 | 0.02 | 0.02 | 40 | 1011.1 |
| 20260904231507 | 71 | 89 | 0.0 | 4.0 | 0.00 | 0.02 | 0.02 | 41 | 1011.1 |
| 20260904224509 | 74 | 294 | 1.0 | 3.0 | 0.00 | 0.02 | 0.02 | 42 | 1011.1 |
| 20260904223007 | 74 | 309 | 1.0 | 4.0 | 0.00 | 0.02 | 0.02 | 41 | 1011.2 |
| 20260904221506 | 74 | 13 | 0.0 | 3.0 | 0.00 | 0.02 | 0.02 | 46 | 1011.1 |
| 20260904214508 | 73 | 325 | 0.0 | 2.0 | 0.00 | 0.02 | 0.02 | 52 | 1011.1 |
| 20260904213059 | 72 | 320 | 1.0 | 3.0 | 0.00 | 0.02 | 0.02 | 58 | 1011.1 |
| 20260904211555 | 70 | 6 | 0.0 | 3.0 | 0.00 | 0.02 | 0.02 | 61 | 1011.3 |
| 20260904204551 | 67 | 342 | 0.0 | 1.0 | 0.00 | 0.02 | 0.02 | 71 | 1011.3 |
| 20260904203046 | 64 | 340 | 0.0 | 1.0 | 0.00 | 0.02 | 0.02 | 78 | 1011.3 |
| 20260904201542 | 63 | 349 | 0.0 | 2.0 | 0.00 | 0.02 | 0.02 | 82 | 1011.3 |
| 20260904194541 | 61 | 339 | 0.0 | 3.0 | 0.00 | 0.02 | 0.02 | 87 | 1011.4 |
| 20260904193039 | 60 | 5 | 0.0 | 3.0 | 0.00 | 0.02 | 0.02 | 90 | 1011.5 |
| 20260904191536 | 59 | 349 | 0.0 | 1.0 | 0.00 | 0.02 | 0.02 | 90 | 1011.6 |
| 20260904184529 | 58 | 12 | 0.0 | 1.0 | 0.00 | 0.02 | 0.02 | 94 | 1011.7 |
| 20260904183029 | 57 | 11 | 0.0 | 1.0 | 0.01 | 0.02 | 0.02 | 95 | 1011.8 |
| 20260904181527 | 56 | 13 | 0.0 | 1.0 | 0.01 | 0.02 | 0.02 | 95 | 1011.7 |
| 20260904174528 | 56 | 11 | 0.0 | 1.0 | 0.01 | 0.02 | 0.02 | 95 | 1011.7 |
| 20260904173026 | 56 | 347 | 0.0 | 0.0 | 0.02 | 0.02 | 0.02 | 95 | 1011.6 |
| 20260904171523 | 55 | 347 | 0.0 | 2.0 | 0.01 | 0.01 | 0.01 | 95 | 1011.3 |
| 20260904164521 | 55 | 13 | 0.0 | 1.0 | 0.01 | 0.01 | 0.01 | 95 | 1011.0 |
| 20260904163021 | 55 | 13 | 0.0 | 0.0 | 0.00 | 0.00 | 0.00 | 95 | 1010.8 |
| 20260904161518 | 55 | 13 | 0.0 | 0.0 | 0.00 | 0.00 | 0.00 | 95 | 1010.7 |
| 20260904154518 | 54 | 13 | 0.0 | 1.0 | 0.00 | 0.00 | 0.00 | 94 | 1010.7 |
| 20260904153018 | 54 | 13 | 0.0 | 0.0 | 0.00 | 0.00 | 0.00 | 94 | 1010.6 |
| 20260904151518 | 54 | 13 | 0.0 | 0.0 | 0.00 | 0.00 | 0.00 | 94 | 1010.7 |
| 20260904144515 | 55 | 6 | 0.0 | 1.0 | 0.00 | 0.00 | 0.00 | 93 | 1010.5 |
| 20260904143013 | 56 | 11 | 0.0 | 0.0 | 0.00 | 0.00 | 0.00 | 93 | 1010.4 |
| 20260904141511 | 56 | 11 | 0.0 | 0.0 | 0.00 | 0.00 | 0.00 | 93 | 1010.2 |
| 20260904134511 | 56 | 11 | 0.0 | 0.0 | 0.00 | 0.00 | 0.00 | 92 | 1009.9 |
| 20260904133003 | 57 | 12 | 0.0 | 0.0 | 0.00 | 0.00 | 0.00 | 92 | 1009.8 |
| 20260904131503 | 57 | 12 | 0.0 | 0.0 | 0.00 | 0.00 | 0.00 | 90 | 1009.8 |
| 20260904124608 | 57 | 353 | 0.0 | 0.0 | 0.00 | 0.00 | 0.00 | 89 | 1009.5 |
| 20260904123100 | 57 | 352 | 0.0 | 0.0 | 0.00 | 0.00 | 0.00 | 89 | 1009.4 |
| 20260904121600 | 57 | 353 | 0.0 | 0.0 | 0.00 | 0.00 | 0.00 | 89 | 1009.6 |
| 20260904120201 | 57 | 352 | 0.0 | 0.0 | 0.00 | 0.00 | 0.00 | 89 | 1009.6 |
| 20260904114502 | 57 | 353 | 0.0 | 0.0 | 0.00 | 0.00 | 0.00 | 89 | 1009.3 |
| 20260904113101 | 57 | 353 | 0.0 | 0.0 | 0.00 | 0.00 | 0.00 | 89 | 1009.2 |
| 20260904113002 | 57 | 353 | 0.0 | 0.0 | 0.00 | 0.00 | 0.00 | 89 | 1009.2 |
| 20260904111558 | 57 | 353 | 0.0 | 0.0 | 0.00 | 0.00 | 0.00 | 88 | 1009.2 |
| 20260904110159 | 57 | 353 | 0.0 | 0.0 | 0.00 | 0.00 | 0.00 | 88 | 1009.1 |
| 20260904104555 | 57 | 353 | 0.0 | 0.0 | 0.00 | 0.00 | 0.00 | 88 | 1009.1 |
| 20260904103054 | 57 | 352 | 0.0 | 0.0 | 0.00 | 0.00 | 0.00 | 88 | 1009.1 |
| 20260904101553 | 57 | 353 | 0.0 | 0.0 | 0.00 | 0.00 | 0.00 | 88 | 1009.1 |
| 20260904100152 | 58 | 353 | 0.0 | 0.0 | 0.00 | 0.00 | 0.00 | 88 | 1009.2 |
| 20260904094551 | 58 | 353 | 0.0 | 0.0 | 0.00 | 0.00 | 0.00 | 88 | 1009.2 |
| 20260904093049 | 58 | 353 | 0.0 | 0.0 | 0.00 | 0.00 | 0.00 | 88 | 1009.2 |
| 20260904091552 | 58 | 353 | 0.0 | 0.0 | 0.00 | 0.00 | 0.00 | 88 | 1009.2 |
| 20260904090147 | 58 | 353 | 0.0 | 0.0 | 0.00 | 0.00 | 0.00 | 88 | 1009.4 |
| 20260904084545 | 58 | 353 | 0.0 | 0.0 | 0.00 | 0.00 | 0.00 | 88 | 1009.6 |
| 20260904083044 | 58 | 353 | 0.0 | 0.0 | 0.00 | 0.00 | 0.00 | 88 | 1009.6 |
| 20260904081552 | 58 | 353 | 0.0 | 0.0 | 0.00 | 0.00 | 0.00 | 88 | 1009.6 |
| 20260904080142 | 57 | 353 | 0.0 | 0.0 | 0.00 | 0.00 | 0.00 | 88 | 1009.6 |
| 20260904074540 | 57 | 353 | 0.0 | 0.0 | 0.00 | 0.00 | 0.00 | 88 | 1009.7 |
| 20260904073039 | 57 | 353 | 0.0 | 0.0 | 0.00 | 0.00 | 0.00 | 87 | 1009.6 |
| 20260904071539 | 57 | 353 | 0.0 | 1.0 | 0.00 | 0.00 | 0.00 | 88 | 1009.6 |
| 20260904070140 | 57 | 353 | 0.0 | 0.0 | 0.00 | 0.00 | 0.00 | 87 | 1009.6 |
| 20260904064535 | 57 | 353 | 0.0 | 0.0 | 0.00 | 0.00 | 0.00 | 86 | 1009.4 |
| 20260904063039 | 58 | 353 | 0.0 | 0.0 | 0.00 | 0.00 | 0.00 | 85 | 1009.3 |
| 20260904061542 | 58 | 353 | 0.0 | 0.0 | 0.00 | 0.00 | 0.00 | 85 | 1009.3 |